KE4AMH Weather Reports


time (UTC)temp
F
wind
direction
speed
knots
gust
knots
rain 1hr
in
rain 24hr
in
rain mn
in
humidity
%
barometer
mb
20260906083010 71 352 0.0 0.0 0.00 0.00 0.00 99 1012.3
20260906082505 71 352 0.0 0.0 0.00 0.00 0.00 99 1011.9
20260906082001 71 352 0.0 0.0 0.00 0.00 0.00 99 1012.1
20260906081456 71 0 0.0 0.0 0.00 0.00 0.00 99 1011.9
20260906080952 71 0 0.0 0.0 0.00 0.00 0.00 99 1011.9
20260906080448 71 0 0.0 0.0 0.00 0.00 0.00 99 1011.9
20260906075943 71 0 0.0 0.0 0.00 0.00 0.00 99 1011.9
20260906075438 71 0 0.0 0.0 0.00 0.00 0.00 99 1011.7
20260906074933 71 0 0.0 0.0 0.00 0.00 0.00 99 1012.1
20260906074433 71 0 0.0 0.0 0.00 0.00 0.00 99 1012.1
20260906073931 71 0 0.0 0.0 0.00 0.00 0.00 99 1011.8
20260906073426 71 0 0.0 0.0 0.00 0.00 0.00 99 1012.1
20260906072923 71 0 0.0 0.0 0.00 0.00 0.00 99 1011.9
20260906072418 71 0 0.0 0.9 0.00 0.00 0.00 99 1011.9
20260906071914 71 0 0.0 0.0 0.00 0.00 0.00 99 1012.4
20260906071409 71 0 0.0 0.0 0.00 0.00 0.00 99 1012.4
20260906070905 71 0 0.0 0.0 0.00 0.00 0.00 99 1012.1
20260906070401 71 0 0.0 0.0 0.00 0.00 0.00 99 1012.0
20260906065857 71 0 0.0 0.0 0.00 0.00 0.00 99 1012.0
20260906065350 72 0 0.0 0.9 0.00 0.00 0.00 99 1012.0
20260906064846 71 195 0.0 0.0 0.00 0.00 0.00 99 1012.0
20260906064342 72 195 0.0 0.0 0.00 0.00 0.00 99 1011.9
20260906063837 72 195 0.0 0.0 0.00 0.00 0.00 99 1011.9
20260906063332 72 195 0.0 0.0 0.00 0.00 0.00 99 1011.8
20260906062827 72 195 0.0 0.0 0.00 0.00 0.00 99 1012.0
20260906062327 72 195 0.0 0.0 0.00 0.00 0.00 99 1012.4
20260906061822 72 195 0.0 0.0 0.00 0.00 0.00 99 1012.6
20260906061318 72 195 0.0 0.0 0.00 0.00 0.00 99 1012.8
20260906060813 72 195 0.0 0.0 0.00 0.00 0.00 98 1012.7
20260906060311 72 195 0.0 0.9 0.00 0.00 0.00 98 1012.9
20260906055807 72 192 0.0 0.9 0.00 0.00 0.00 98 1012.9
20260906055306 72 346 0.0 0.0 0.00 0.00 0.00 98 1013.2
20260906054756 72 346 0.0 0.0 0.00 0.00 0.00 98 1013.1
20260906054252 72 346 0.0 0.0 0.00 0.00 0.00 98 1013.1
20260906053748 73 346 0.0 0.0 0.00 0.00 0.00 98 1012.9
20260906053244 72 346 0.0 0.9 0.00 0.00 0.00 98 1013.2
20260906052739 73 195 0.0 0.0 0.00 0.00 0.00 97 1013.1
20260906052235 73 195 0.0 0.9 0.00 0.00 0.00 97 1013.1
20260906051732 73 172 0.0 1.7 0.00 0.00 0.00 97 1013.3
20260906051231 73 345 0.0 0.0 0.00 0.00 0.00 97 1013.4
20260906050727 73 345 0.0 0.0 0.00 0.00 0.00 97 1013.6
20260906050222 73 345 0.0 0.0 0.00 0.00 0.00 97 1013.3
20260906045720 73 345 0.0 0.0 0.00 0.00 0.00 96 1013.4
20260906045216 73 345 0.0 0.0 0.00 0.00 0.00 96 1013.1
20260906044712 73 345 0.0 0.9 0.00 0.00 0.00 96 1013.3
20260906044206 74 188 0.0 0.0 0.00 0.00 0.00 96 1013.1
20260906043703 73 188 0.0 0.0 0.00 0.00 0.00 96 1013.2
20260906043158 73 188 0.0 0.0 0.00 0.00 0.00 96 1013.4
20260906042657 73 188 0.0 0.0 0.00 0.00 0.00 96 1013.2
20260906042151 74 188 0.0 0.0 0.00 0.00 0.00 96 1013.3
20260906041647 74 188 0.0 0.0 0.00 0.00 0.00 96 1013.3
20260906041142 74 188 0.0 0.0 0.00 0.00 0.00 96 1013.1
20260906040637 74 279 0.0 0.0 0.00 0.00 0.00 96 1013.3
20260906040133 74 279 0.0 0.0 0.00 0.00 0.00 96 1013.3
20260906035628 74 279 0.0 0.0 0.00 0.02 0.02 96 1013.2
20260906035124 74 279 0.0 0.0 0.00 0.02 0.02 97 1013.1
20260906034624 74 279 0.0 0.0 0.00 0.02 0.02 97 1013.2
20260906034118 74 279 0.0 0.0 0.00 0.02 0.02 97 1013.3
20260906033614 74 279 0.0 0.0 0.00 0.02 0.02 97 1013.1
20260906033109 74 279 0.0 0.0 0.00 0.02 0.02 98 1013.3
20260906032606 75 279 0.0 0.0 0.00 0.02 0.02 98 1013.4
20260906032100 75 291 0.0 0.0 0.00 0.02 0.02 98 1013.4
20260906031555 75 286 0.0 0.0 0.00 0.02 0.02 97 1013.3
20260906031051 75 286 0.0 0.0 0.00 0.02 0.02 97 1013.2
20260906030550 75 286 0.0 0.0 0.00 0.02 0.02 97 1013.3
20260906030049 75 286 0.0 0.0 0.00 0.02 0.02 97 1013.5
20260906025544 75 286 0.0 0.9 0.00 0.02 0.02 97 1013.3
20260906025042 75 254 0.0 0.9 0.00 0.02 0.02 97 1013.5
20260906024538 75 270 0.0 0.0 0.00 0.02 0.02 96 1013.4
20260906024037 75 286 0.0 0.0 0.00 0.02 0.02 96 1013.6
20260906023534 75 286 0.0 0.9 0.00 0.02 0.02 96 1013.3
20260906023028 75 203 0.0 0.0 0.00 0.02 0.02 96 1013.4
20260906022523 75 203 0.0 0.0 0.00 0.02 0.02 95 1013.3
20260906022013 75 203 0.0 0.0 0.00 0.02 0.02 95 1013.2
20260906021509 75 203 0.0 0.0 0.00 0.02 0.02 94 1013.2
20260906021003 75 203 0.0 0.0 0.00 0.02 0.02 94 1013.0
20260906020502 75 203 0.0 0.0 0.00 0.02 0.02 94 1013.1
20260906020001 75 203 0.0 0.9 0.00 0.02 0.02 94 1013.2
20260906015501 76 151 0.0 0.0 0.00 0.02 0.02 93 1013.1
20260906015001 76 195 0.9 0.9 0.00 0.02 0.02 93 1012.9
20260906014455 76 0 0.0 0.9 0.00 0.02 0.02 92 1013.0
20260906013951 76 0 0.0 0.9 0.00 0.02 0.02 92 1013.1
20260906013447 76 346 0.0 0.0 0.00 0.02 0.02 92 1013.1
20260906012943 77 346 0.0 1.7 0.00 0.02 0.02 92 1013.4
20260906012437 77 187 0.0 0.9 0.00 0.02 0.02 91 1013.5
20260906011936 77 331 0.0 0.0 0.00 0.02 0.02 91 1013.5
20260906011432 77 187 0.0 0.0 0.00 0.02 0.02 90 1013.4
20260906010927 77 278 0.0 0.0 0.00 0.02 0.02 90 1013.3
20260906010422 77 286 0.0 0.9 0.00 0.02 0.02 90 1013.0
20260906005919 77 200 0.0 1.7 0.00 0.02 0.02 89 1013.2
20260906005418 77 270 0.0 0.0 0.00 0.02 0.02 89 1013.0
20260906004916 77 285 0.0 0.9 0.00 0.02 0.02 89 1012.8
20260906004411 78 279 0.0 1.7 0.00 0.02 0.02 88 1012.8
20260906003907 78 270 0.0 0.9 0.00 0.02 0.02 87 1012.8
20260906003402 78 286 0.0 0.9 0.00 0.02 0.02 86 1012.4
20260906002857 78 261 0.0 0.9 0.00 0.02 0.02 85 1012.3
20260906002356 78 270 0.0 0.0 0.00 0.02 0.02 84 1012.1
20260906001852 79 270 0.0 0.0 0.00 0.02 0.02 83 1011.7
20260906001348 79 270 0.0 0.0 0.00 0.02 0.02 82 1011.9
20260906000842 79 270 0.0 0.9 0.00 0.02 0.02 82 1011.8
20260906000337 79 285 0.0 0.0 0.00 0.02 0.02 81 1011.5
20260905235837 80 285 0.0 0.0 0.00 0.02 0.02 80 1011.8
20260905235331 80 285 0.0 0.0 0.00 0.02 0.02 79 1012.3
20260905234827 80 285 0.0 0.0 0.00 0.02 0.02 79 1012.0
20260905234322 81 285 0.0 0.0 0.00 0.02 0.02 77 1012.1
20260905233817 81 261 0.0 0.9 0.00 0.02 0.02 77 1011.8
20260905233312 82 345 0.0 0.0 0.00 0.02 0.02 76 1012.0
20260905232811 82 345 0.0 0.0 0.00 0.02 0.02 75 1012.0
20260905232307 82 345 0.0 0.9 0.00 0.02 0.02 74 1011.9
20260905231803 82 279 0.0 0.0 0.00 0.02 0.02 75 1011.9
20260905231258 82 180 0.0 0.0 0.00 0.02 0.02 74 1012.0
20260905230754 82 270 0.0 0.0 0.00 0.02 0.02 74 1011.9
20260905230252 82 337 0.0 0.9 0.00 0.02 0.02 74 1011.7
20260905225752 82 180 0.0 0.0 0.00 0.02 0.02 72 1011.9
20260905225247 82 331 0.0 0.0 0.00 0.02 0.02 71 1012.3
20260905224746 82 331 0.0 0.0 0.00 0.02 0.02 73 1011.9
20260905224242 82 345 0.0 0.0 0.00 0.02 0.02 71 1012.1
20260905223737 83 270 0.0 0.0 0.00 0.02 0.02 73 1012.3
20260905223234 83 0 0.0 1.7 0.00 0.02 0.02 72 1012.0
20260905222730 83 6 0.0 1.7 0.00 0.02 0.02 72 1011.8
20260905222228 83 5 0.0 1.7 0.00 0.02 0.02 72 1012.0
20260905221724 83 262 0.0 2.6 0.00 0.02 0.02 73 1011.8
20260905221221 83 340 0.0 1.7 0.00 0.02 0.02 72 1012.0
20260905220717 83 331 0.0 0.9 0.00 0.02 0.02 72 1011.9
20260905220213 83 331 0.0 1.7 0.00 0.02 0.02 71 1012.4
20260905215712 83 320 0.0 2.6 0.00 0.02 0.02 72 1012.1
20260905215208 83 0 0.0 1.7 0.00 0.02 0.02 75 1012.0
20260905214704 82 0 0.0 0.9 0.00 0.02 0.02 81 1012.0
20260905214159 81 74 0.0 0.9 0.00 0.02 0.02 84 1012.4
20260905213654 81 6 0.0 1.7 0.00 0.02 0.02 84 1012.3
20260905213150 81 188 0.0 0.9 0.00 0.02 0.02 82 1011.8
20260905212645 81 203 0.0 0.9 0.00 0.02 0.02 80 1012.1
20260905212144 81 279 0.0 0.0 0.00 0.02 0.02 82 1012.0
20260905211639 80 261 0.0 0.9 0.00 0.02 0.02 85 1012.1
20260905211134 80 348 0.0 0.9 0.00 0.02 0.02 84 1012.3
20260905210631 79 352 0.0 0.9 0.00 0.02 0.02 85 1012.0
20260905210126 79 331 0.9 0.9 0.02 0.02 0.02 84 1012.4
20260905205625 79 270 0.0 0.0 0.02 0.02 0.02 84 1013.1
20260905205124 79 270 0.0 1.7 0.00 0.02 0.02 84 1013.1
20260905204624 79 172 0.0 0.0 0.00 0.02 0.02 83 1013.3
20260905204120 79 270 0.0 0.9 0.00 0.02 0.02 83 1013.4
20260905203620 80 279 0.0 1.7 0.00 0.02 0.02 81 1013.4
20260905203115 80 264 1.7 1.7 0.02 0.02 0.02 79 1013.3
20260905202610 81 285 0.9 0.9 0.02 0.02 0.02 76 1013.3
20260905202105 81 270 0.9 1.7 0.02 0.01 0.01 75 1013.4
20260905201601 82 246 0.0 3.5 0.05 0.01 0.01 74 1013.3
20260905201100 84 274 1.7 2.6 0.02 0.01 0.01 72 1013.3
20260905200556 84 331 0.0 2.6 0.02 0.00 0.00 67 1012.9
20260905200056 86 261 0.9 5.2 0.00 0.00 0.00 65 1012.6
20260905195550 89 26 0.9 8.7 0.00 0.00 0.00 58 1012.3
20260905195046 91 22 1.7 6.1 0.00 0.00 0.00 55 1012.3
20260905194545 94 35 0.0 10.4 0.00 0.00 0.00 51 1012.4
20260905194044 97 337 0.9 2.6 0.00 0.00 0.00 49 1012.0
20260905193540 98 331 0.0 2.6 0.00 0.00 0.00 48 1011.6
20260905193035 98 23 0.0 1.7 0.00 0.00 0.00 47 1011.6
20260905192530 98 355 1.7 2.6 0.00 0.00 0.00 47 1011.7
20260905192027 100 23 1.7 3.5 0.00 0.00 0.00 47 1011.7
20260905191525 100 341 1.7 4.3 0.00 0.00 0.00 46 1011.8
20260905191024 100 0 1.7 1.7 0.00 0.00 0.00 47 1012.0
20260905190522 101 198 1.7 1.7 0.00 0.00 0.00 44 1011.8
20260905190022 100 200 0.0 0.9 0.00 0.00 0.00 46 1011.9
20260905185516 100 306 1.7 3.5 0.00 0.00 0.00 45 1011.9
20260905185015 99 90 0.0 3.5 0.00 0.00 0.00 46 1011.7
20260905184510 101 172 1.7 4.3 0.00 0.00 0.00 45 1011.9
20260905184009 101 180 2.6 2.6 0.00 0.00 0.00 46 1011.9
20260905183508 99 279 0.0 4.3 0.00 0.00 0.00 47 1011.9
20260905183003 99 253 1.7 4.3 0.00 0.00 0.00 47 1011.9
20260905182503 99 329 2.6 4.3 0.00 0.00 0.00 47 1012.1
20260905181958 99 53 3.5 4.3 0.00 0.00 0.00 46 1012.1
20260905181453 99 229 0.0 4.3 0.00 0.00 0.00 47 1012.3
20260905180952 100 90 2.6 2.6 0.00 0.00 0.00 46 1012.6
20260905180446 100 28 2.6 3.5 0.00 0.00 0.00 46 1012.7
20260905175942 101 300 0.9 1.7 0.00 0.00 0.00 47 1012.7
20260905175441 100 300 0.0 6.1 0.00 0.00 0.00 48 1012.9
20260905174937 99 182 3.5 3.5 0.00 0.00 0.00 48 1012.8
20260905174432 98 201 1.7 3.5 0.00 0.00 0.00 49 1012.8
20260905173928 99 40 1.7 3.5 0.00 0.00 0.00 48 1012.9
20260905173424 98 334 1.7 3.5 0.00 0.00 0.00 50 1012.8
20260905172919 98 188 2.6 3.5 0.00 0.00 0.00 48 1013.0
20260905172417 98 177 0.0 4.3 0.00 0.00 0.00 48 1012.8
20260905171913 99 63 0.0 2.6 0.00 0.00 0.00 50 1013.2
20260905171409 98 270 0.9 3.5 0.00 0.00 0.00 49 1013.0
20260905170905 98 327 1.7 3.5 0.00 0.00 0.00 51 1012.8
20260905170401 97 177 2.6 4.3 0.00 0.00 0.00 50 1013.2
20260905165901 98 180 0.0 1.7 0.00 0.00 0.00 51 1013.3
20260905165355 98 166 0.9 2.6 0.00 0.00 0.00 52 1013.6
20260905164850 98 55 1.7 1.7 0.00 0.00 0.00 53 1013.6
20260905164345 98 303 0.0 2.6 0.00 0.00 0.00 51 1013.8
20260905163840 98 90 1.7 3.5 0.00 0.00 0.00 51 1013.8
20260905163337 99 180 0.0 2.6 0.00 0.00 0.00 52 1013.9
20260905162833 98 0 0.0 2.6 0.00 0.00 0.00 54 1014.0
20260905162326 98 7 0.9 2.6 0.00 0.00 0.00 53 1014.1
20260905161821 98 306 1.7 2.6 0.00 0.00 0.00 56 1014.0
20260905161320 98 279 0.9 2.6 0.00 0.00 0.00 57 1014.0
20260905160819 96 257 0.0 1.7 0.00 0.00 0.00 57 1014.3
20260905160313 96 270 1.7 1.7 0.00 0.00 0.00 57 1014.1
20260905155808 96 180 0.0 1.7 0.00 0.00 0.00 57 1014.2
20260905155307 96 115 2.6 2.6 0.00 0.00 0.00 56 1014.3
20260905154801 95 264 1.7 2.6 0.00 0.00 0.00 58 1014.3
20260905154257 95 287 1.7 1.7 0.00 0.00 0.00 59 1014.3
20260905153752 96 262 0.9 1.7 0.00 0.00 0.00 58 1014.4
20260905153248 95 307 0.0 1.7 0.00 0.00 0.00 61 1014.6
20260905152742 94 300 1.7 2.6 0.00 0.00 0.00 61 1014.6
20260905152237 94 276 1.7 1.7 0.00 0.00 0.00 63 1014.6
20260905151736 94 277 0.0 1.7 0.00 0.00 0.00 62 1014.4
20260905151232 95 180 0.0 1.7 0.00 0.00 0.00 61 1014.8
20260905150726 93 5 1.7 2.6 0.00 0.00 0.00 63 1014.6
20260905150225 93 342 0.0 1.7 0.00 0.00 0.00 63 1014.7
20260905145723 92 270 0.0 0.9 0.00 0.00 0.00 65 1014.8
20260905145218 92 261 0.0 0.9 0.00 0.00 0.00 65 1014.7
20260905144718 92 262 0.0 1.7 0.00 0.00 0.00 65 1015.0
20260905144218 91 270 0.0 0.9 0.00 0.00 0.00 67 1014.8
20260905143712 90 285 0.9 1.7 0.00 0.00 0.00 69 1014.6
20260905143212 90 270 0.0 1.7 0.00 0.00 0.00 70 1014.9
20260905142710 90 262 0.0 1.7 0.00 0.00 0.00 70 1014.9
20260905142205 90 0 0.0 0.9 0.00 0.00 0.00 70 1015.1
20260905141701 90 270 0.0 1.7 0.00 0.00 0.00 71 1014.9
20260905141156 89 203 0.0 0.9 0.00 0.00 0.00 73 1014.8
20260905140651 89 213 0.0 1.7 0.00 0.00 0.00 72 1015.1
20260905140145 89 279 0.0 1.7 0.00 0.00 0.00 73 1015.1
20260905135640 88 278 0.9 1.7 0.00 0.00 0.00 74 1015.1
20260905135135 88 285 0.0 1.7 0.00 0.00 0.00 75 1015.1
20260905134624 87 286 0.0 0.9 0.00 0.00 0.00 76 1015.0
20260905134123 86 262 0.0 0.9 0.00 0.00 0.00 77 1015.3
20260905133619 86 278 0.0 0.9 0.00 0.00 0.00 78 1015.1
20260905133119 84 249 0.0 1.7 0.00 0.00 0.00 80 1015.0
20260905132619 85 279 0.0 0.9 0.00 0.00 0.00 80 1015.0
20260905132113 83 180 0.0 1.7 0.00 0.00 0.00 82 1015.2
20260905131609 83 174 2.6 2.6 0.00 0.00 0.00 82 1015.3
20260905131104 83 201 1.7 1.7 0.00 0.00 0.00 82 1015.3
20260905130603 82 261 0.9 0.9 0.00 0.00 0.00 84 1015.2
20260905130058 81 270 0.9 0.9 0.00 0.00 0.00 86 1015.2
20260905125557 80 261 0.0 0.9 0.00 0.00 0.00 88 1015.1
20260905125053 79 270 0.9 1.7 0.00 0.00 0.00 90 1015.2
20260905124550 77 270 0.0 0.9 0.00 0.00 0.00 93 1015.2
20260905124045 77 270 0.0 0.9 0.00 0.00 0.00 93 1015.2
20260905123540 76 270 0.0 0.0 0.00 0.00 0.00 94 1015.1
20260905123038 76 294 0.0 1.7 0.00 0.00 0.00 95 1015.2
20260905122537 75 261 0.0 0.0 0.00 0.00 0.00 95 1015.2
20260905122032 75 270 0.0 0.0 0.00 0.00 0.00 96 1015.0
20260905121527 75 270 0.0 0.0 0.00 0.00 0.00 96 1015.0
20260905121021 74 261 0.0 0.0 0.00 0.00 0.00 96 1014.9
20260905120521 74 261 0.0 0.0 0.00 0.00 0.00 97 1015.0
20260905120016 74 261 0.0 0.0 0.00 0.00 0.00 97 1014.9
20260905115515 74 261 0.0 0.0 0.00 0.00 0.00 97 1014.8
20260905115009 74 261 0.0 0.9 0.00 0.00 0.00 97 1014.9
20260905114504 74 270 0.0 0.0 0.00 0.00 0.00 97 1014.7
20260905114003 74 270 0.0 0.0 0.00 0.00 0.00 97 1014.9
20260905113458 73 270 0.0 0.0 0.00 0.00 0.00 97 1014.5
20260905112954 73 254 0.0 0.0 0.00 0.00 0.00 97 1014.5
20260905112449 73 270 0.0 0.0 0.00 0.00 0.00 97 1014.5
20260905111944 73 270 0.0 0.9 0.00 0.00 0.00 97 1014.4
20260905111443 74 246 0.0 0.9 0.00 0.00 0.00 97 1014.4
20260905110938 73 270 0.0 0.0 0.00 0.00 0.00 97 1014.2
20260905110432 73 254 0.0 0.9 0.00 0.00 0.00 97 1014.3
20260905105932 74 261 0.0 0.0 0.00 0.00 0.00 96 1014.2
20260905105426 74 270 0.0 0.0 0.00 0.00 0.00 96 1014.1
20260905104926 74 15 0.0 0.0 0.00 0.00 0.00 96 1014.2
20260905104422 74 15 0.0 0.0 0.00 0.00 0.00 96 1014.3
20260905103916 74 15 0.0 0.0 0.00 0.00 0.00 96 1014.2
20260905103412 74 15 0.0 0.0 0.00 0.00 0.00 96 1014.2
20260905102907 74 15 0.0 0.0 0.00 0.00 0.00 96 1013.9
20260905102404 74 15 0.0 0.0 0.00 0.00 0.00 96 1014.0
20260905101904 74 15 0.0 0.0 0.00 0.00 0.00 96 1014.0
20260905101402 74 15 0.0 0.0 0.00 0.00 0.00 96 1014.0
20260905100857 74 15 0.0 0.0 0.00 0.00 0.00 95 1013.9
20260905100353 74 15 0.0 0.0 0.00 0.00 0.00 95 1014.0
20260905095852 74 15 0.0 0.0 0.00 0.00 0.00 95 1014.0
20260905095347 74 15 0.0 0.0 0.00 0.00 0.00 95 1014.3
20260905094841 74 15 0.0 0.0 0.00 0.00 0.00 95 1014.1
20260905094337 74 15 0.0 0.0 0.00 0.00 0.00 95 1014.0
20260905093835 74 15 0.0 0.0 0.00 0.00 0.00 94 1013.9
20260905093326 74 15 0.0 0.0 0.00 0.00 0.00 94 1013.9
20260905092822 74 15 0.0 0.0 0.00 0.00 0.00 94 1014.1
20260905092322 74 15 0.0 0.0 0.00 0.00 0.00 94 1014.1
20260905091817 74 15 0.0 0.0 0.00 0.00 0.00 94 1014.0
20260905091316 75 15 0.0 0.0 0.00 0.00 0.00 94 1014.1
20260905090815 74 15 0.0 0.0 0.00 0.00 0.00 94 1014.1
20260905090311 75 15 0.0 0.0 0.00 0.00 0.00 94 1014.2
20260905085811 75 15 0.0 0.0 0.00 0.00 0.00 93 1014.0
20260905085310 75 15 0.0 0.0 0.00 0.00 0.00 93 1014.1
20260905084801 75 15 0.0 0.0 0.00 0.00 0.00 93 1014.0
20260905084300 75 15 0.0 0.0 0.00 0.00 0.00 93 1014.0
20260905083755 75 15 0.0 0.0 0.00 0.00 0.00 93 1014.1